Home > Time Zones > World Clock > Weather > Sweden > Lund > Past weeks

Flag for Sweden Weather past 2 weeks in Lund, Sweden

Now
41 °F

Passing clouds.


Feels Like: 36 °F
Forecast: 38 / 51 °F
Wind: 7 mph from Northeast

Location: Malmo / Sturup

Current Time: Apr 26, 2015 at 10:24:22 PM

Latest Report: Apr 26, 2015 at 9:50 PM


Visibility: N/A

Pressure: 29.68 "Hg

Humidity: 93%

Dew point: 39 °F

Location of LundLocation

Historic Weather in Lund — Graph

°F

Lund temperature yesterday

Maximum temperature yesterday: 55 °F (at 1:50 PM)
Minimum temperature yesterday: 41 °F (at 12:20 AM)
Average temperature yesterday: 49 °F

Past Weeks' High & Low Weather Summary

 TemperatureHumidityPressure
High59 °F (Apr 15, 3:20 PM)100% (Apr 11, 10:50 PM)30.30 "Hg (Apr 11, 10:50 PM)
Low30 °F (Apr 18, 4:20 AM)38% (Apr 19, 1:20 PM)29.65 "Hg (Apr 15, 4:50 PM)
Average47 °F76%29.99 "Hg
* Reported Apr 11 9:20 PM — Apr 26 9:20 PM, Lund, Weather by CustomWeather, © 2015

Note: Actual official high and low records may vary slightly from our data, if they occured in-between our weather recording intervals... More about our weather records

Advertising

Lund weather history for previous 24 hours

 ConditionsComfort  
Time TempWeatherWind HumidityBarometerVisibility
9:20 PM
Sun, Apr 26
41 °FPartly sunny.7 mph93%29.71 "HgN/A
8:50 PM41 °FPartly sunny.12 mph87%29.68 "HgN/A
8:20 PM41 °FPartly sunny.12 mph93%29.68 "HgN/A
7:50 PM43 °FPartly sunny.12 mph87%29.68 "HgN/A
7:20 PM45 °FPartly sunny.8 mph93%29.68 "HgN/A
6:50 PM45 °FLight rain. Partly sunny.9 mph93%29.68 "Hg6 mi
6:20 PM45 °FPartly sunny.7 mph87%29.68 "HgN/A
5:50 PM45 °FPartly sunny.8 mph87%29.68 "HgN/A
5:20 PM45 °FBroken clouds.12 mph87%29.71 "HgN/A
4:50 PM45 °FBroken clouds.15 mph93%29.71 "HgN/A
4:20 PM45 °FRain. Mostly cloudy.13 mph100%29.68 "Hg5 mi
3:50 PM46 °FFog.12 mph93%29.68 "Hg6 mi
3:20 PM48 °FFog.7 mph94%29.68 "Hg2 mi
2:50 PM48 °FFog.1 mph94%29.68 "Hg4 mi
2:20 PM48 °FFog.2 mph94%29.71 "Hg4 mi
1:50 PM46 °FFog.6 mph100%29.71 "Hg3 mi
1:20 PM46 °FFog.7 mph100%29.71 "Hg4 mi
12:50 PM48 °FDrizzle. Fog.6 mph94%29.71 "Hg2 mi
12:20 PM48 °FFog.7 mph94%29.71 "Hg4 mi
11:50 AM50 °FBroken clouds.13 mph88%29.71 "HgN/A
11:20 AM52 °FPartly sunny.12 mph82%29.68 "HgN/A
10:50 AM52 °FMore clouds than sun.12 mph88%29.68 "HgN/A
10:20 AM52 °FOvercast.10 mph82%29.68 "HgN/A
9:50 AM52 °FMostly cloudy.7 mph82%29.68 "HgN/A
9:20 AM50 °FOvercast.7 mph88%29.68 "HgN/A
8:50 AM50 °FOvercast.8 mph88%29.68 "HgN/A
8:20 AM50 °FFog.7 mph88%29.68 "Hg4 mi
7:50 AM50 °FFog.7 mph94%29.68 "Hg4 mi
7:20 AM48 °FFog.7 mph94%29.68 "Hg4 mi
6:50 AM50 °FFog.6 mph94%29.68 "Hg4 mi
6:20 AM48 °FFog.9 mph100%29.68 "Hg3 mi
5:50 AM48 °FFog.8 mph100%29.65 "Hg2 mi
5:20 AM48 °FFog.9 mph100%29.65 "Hg2 mi
4:50 AM48 °FFog.7 mph100%29.65 "Hg2 mi
4:20 AM50 °FDrizzle. Fog.8 mph94%29.65 "Hg2 mi
3:50 AM50 °FDrizzle. Fog.8 mph94%29.65 "Hg2 mi
3:20 AM50 °FLight rain. Fog.8 mph94%29.65 "Hg2 mi
2:50 AM50 °FFog.8 mph100%29.65 "Hg2 mi
2:20 AM50 °FFog.9 mph100%29.65 "Hg1 mi
1:50 AM50 °FDrizzle. Fog.9 mph100%29.65 "Hg1 mi
1:20 AM50 °FFog.9 mph100%29.65 "Hg1 mi
12:50 AM50 °FFog.9 mph100%29.65 "Hg1 mi
12:20 AM50 °FFog.8 mph100%29.65 "Hg1 mi
11:20 PM
Sat, Apr 25
50 °FFog.9 mph100%29.65 "Hg1 mi
10:50 PM50 °FFog.9 mph100%29.65 "Hg1 mi
10:20 PM50 °FDrizzle. Fog.12 mph100%29.65 "Hg1 mi
Weather by CustomWeather, © 2015

See weather overviewHow to use our weather pages